[[{"header":{"parameterUnit":"m.s-1","parameterCategory":1,"la1":30.2991,"la2":30.254,"lo1":-89.0895,"lo2":-89.0444,"dy":0.0017,"dx":0.0017,"nx":28,"ny":28,"refTime":"2025-04-15T09:00:00:Z","depth":0,"parameterNumber":2,"parameterNumberName":"U-component_of_WINDS"},"data":[0,0,0,0,0,0,0,0,0,0,0,0,0,0,0,0,0,0,0,0,0,0,0,0,0,0,0,0,0,0,0,0,0,0,0,0,0,0,0,0,0,0,0,0,0,0,0,0,0,0,0,0,0,0,0,0,0,0,-5.0652,-5.0652,0,-5.0644,-5.0644,-5.0644,-5.0527,-5.0524,-5.0521,-5.0519,-5.051,-5.0513,-5.0515,0,0,0,0,0,0,0,0,0,0,0,0,0,-5.0569,-5.0571,-5.0652,-5.0652,-5.0652,-5.0644,-5.0644,-5.0644,-5.0528,-5.0524,-5.0521,-5.0517,-5.051,-5.0513,-5.0516,0,0,0,0,0,0,0,0,0,0,0,0,0,-5.0587,-5.0571,-5.0652,-5.0593,-5.0588,-5.0644,-5.0644,-5.0644,-5.0529,-5.0524,-5.052,-5.0516,-5.0509,-5.0512,-5.0516,-5.0628,0,0,-5.0528,-5.0529,0,0,0,0,0,0,0,0,-5.0586,-5.059,-5.0602,-5.0598,-5.0592,-5.0582,-5.0611,-5.0638,-5.053,-5.0551,-5.0518,-5.0513,-5.0538,-5.0539,-5.0547,-5.0628,-5.0627,-5.0528,-5.053,-5.0532,-5.0533,0,0,0,0,0,0,0,-5.0585,-5.059,-5.0649,-5.0602,-5.0596,-5.0567,-5.0565,-5.0616,-5.0569,-5.0549,-5.054,-5.0541,-5.0534,-5.0544,-5.0546,-5.0627,-5.0528,-5.0531,-5.0533,-5.0535,-5.08,-5.0804,0,0,0,0,0,0,-5.0592,-5.059,-5.0649,-5.0649,-5.0578,-5.0573,-5.057,-5.059,-5.0569,-5.0561,-5.0545,-5.0536,-5.0539,-5.0542,-5.0545,-5.0676,-5.0532,-5.0535,-5.0538,-5.0795,-5.0801,-5.0806,0,0,0,0,0,0,-5.0591,-5.0598,-5.065,-5.0617,-5.0621,-5.0579,-5.0602,-5.0592,-5.0601,-5.0565,-5.0557,-5.0563,-5.0536,-5.054,-5.0608,-5.0674,-5.0537,-5.0541,-5.0789,-5.0797,-5.0803,-5.0937,0,0,0,0,0,0,-5.0589,-5.0599,-5.0641,-5.0619,-5.0623,-5.0713,-5.0606,-5.0595,-5.0608,-5.0596,-5.058,-5.0573,-5.0533,-5.0603,-5.0612,-5.0677,-5.0543,-5.0783,-5.0793,-5.0801,-5.0927,-5.0948,-5.0966,0,0,0,0,0,-5.0586,-5.0679,-5.0643,-5.0651,-5.0675,-5.0717,-5.072,-5.0671,-5.0614,-5.0656,-5.0633,-5.0574,-5.0665,-5.0611,-5.062,-5.0687,-5.0779,-5.079,-5.08,-5.0918,-5.0944,-5.0966,0,0,0,0,0,0,-5.0709,-5.0675,-5.0635,-5.0723,-5.0724,-5.0697,-5.0749,-5.07,-5.0717,-5.0705,-5.0644,-5.0641,-5.072,-5.0709,-5.065,-5.0794,-5.0712,-5.0725,-5.0798,-5.0823,-5.0842,-5.0843,-5.0547,0,0,0,0,0,-5.0747,-5.0784,-5.0751,-5.0832,-5.0835,-5.0792,-5.0809,-5.0771,-5.0769,-5.0769,-5.0751,-5.0752,-5.078,-5.0801,-5.0825,-5.0925,-5.092,-5.0975,-5.0995,-5.1011,-5.1023,-5.1076,-5.11,-5.0841,-5.0841,-5.0841,0,0,-5.0824,-5.081,-5.0837,-5.0857,-5.0853,-5.0893,-5.0793,-5.0839,-5.0868,-5.0776,-5.084,-5.0827,-5.0823,-5.0909,-5.0945,-5.0903,-5.1094,-5.1025,-5.1038,-5.1041,-5.109,-5.1114,-5.1136,-5.0848,-5.0847,-5.0846,0,0,-5.0987,-5.0979,-5.1046,-5.1044,-5.104,-5.1011,-5.1027,-5.1008,-5.0996,-5.1059,-5.0991,-5.1024,-5.1075,-5.1076,-5.1083,-5.1246,-5.1193,-5.1256,-5.1359,-5.1411,-5.1432,-5.145,-5.1509,-5.1531,-5.1268,-5.1268,-5.1268,0,-5.1084,-5.1141,-5.1087,-5.1138,-5.1149,-5.1067,-5.1135,-5.1135,-5.1139,-5.1149,-5.1101,-5.1164,-5.1156,-5.124,-5.128,-5.1288,-5.1305,-5.1258,-5.1433,-5.1451,-5.1466,-5.1522,-5.1545,-5.1276,-5.1275,-5.1274,-5.1273,0,-5.1261,-5.1302,-5.1357,-5.1363,-5.138,-5.1439,-5.1394,-5.1418,-5.1379,-5.1355,-5.1421,-5.1408,-5.1429,-5.1446,-5.1408,-5.1526,-5.15,-5.1444,-5.136,-5.15,-5.1551,-5.1572,-5.1287,-5.1284,-5.1282,-5.128,0,0,-5.1502,-5.1477,-5.1498,-5.15,-5.1489,-5.152,-5.1576,-5.1596,-5.1618,-5.1623,-5.1669,-5.1714,-5.1662,-5.167,-5.1632,-5.1678,-5.1809,-5.1616,-5.1615,-5.1653,-5.1939,-5.1982,-5.2007,-5.1773,-5.1777,-5.178,-5.1939,0,-5.1659,-5.1753,-5.1706,-5.1805,-5.1843,-5.1766,-5.1814,-5.1813,-5.1793,-5.1821,-5.1798,-5.1832,-5.176,-5.1765,-5.1807,-5.1784,-5.1866,-5.1772,-5.1816,-5.1818,-5.182,-5.2034,-5.2079,-5.223,-5.1959,-5.1962,-5.1965,0,-5.1855,-5.1869,-5.1973,-5.1956,-5.197,-5.2014,-5.203,-5.2058,-5.2055,-5.2037,-5.2047,-5.1998,-5.2051,-5.1968,-5.2041,-5.1979,-5.1994,-5.1986,-5.199,-5.1993,-5.1901,-5.2044,-5.2277,-5.23,-5.1996,-5.1993,-5.1991,0,-5.2021,-5.2066,-5.2134,-5.2138,-5.2119,-5.2153,-5.2147,-5.2139,-5.2155,-5.2168,-5.2178,-5.2197,-5.2208,-5.2224,-5.2182,-5.2125,-5.2262,-5.2174,-5.2249,-5.2251,-5.2282,-5.2281,-5.2522,-5.2291,-5.229,-5.229,-5.229,0,-5.2202,-5.2269,-5.2209,-5.2251,-5.2323,-5.2268,-5.2342,-5.2327,-5.2322,-5.236,-5.2294,-5.2331,-5.2272,-5.2304,-5.2271,-5.2338,-5.2343,-5.233,-5.2321,-5.2337,-5.2339,-5.2346,-5.2335,-5.2296,-5.2295,-5.2293,-5.2292,0,-5.2401,-5.2363,-5.2432,-5.2409,-5.2404,-5.2459,-5.2439,-5.2477,-5.2452,-5.2501,-5.251,-5.247,-5.2504,-5.2463,-5.2493,-5.2471,-5.2562,-5.2537,-5.2563,-5.2557,-5.2634,-5.2628,-5.2889,-5.2921,-5.2669,-5.2671,-5.2673,0,-5.252,-5.2569,-5.2551,-5.2572,-5.257,-5.2604,-5.262,-5.2568,-5.2587,-5.2588,-5.2626,-5.2654,-5.2674,-5.2731,-5.2706,-5.2729,-5.2704,-5.2794,-5.2707,-5.2722,-5.2707,-5.2705,-5.271,-5.2812,-5.2815,-5.2818,-5.282,0,-5.2735,-5.2714,-5.2738,-5.2758,-5.2778,-5.279,-5.2798,-5.2818,-5.2764,-5.2789,-5.2822,-5.2838,-5.2869,-5.2898,-5.2914,-5.2907,-5.2856,-5.2847,-5.2866,-5.2883,-5.2897,-5.2892,-5.2613,-5.2842,-5.284,-5.2838,-5.2837,-5.2836,-5.2897,-5.2938,-5.2932,-5.2963,-5.2963,-5.2971,-5.3006,-5.2985,-5.3013,-5.3034,-5.3001,-5.3044,-5.304,-5.3056,-5.3056,-5.3088,-5.305,-5.3076,-5.3083,-5.3091,-5.3103,-5.2891,-5.3091,-5.309,-5.3089,-5.3089,-5.3088,0,-5.311,-5.3103,-5.3131,-5.3143,-5.3168,-5.3116,-5.3121,-5.3145,-5.3183,-5.3184,-5.3205,-5.3244,-5.3272,-5.3249,-5.3272,-5.3303,-5.328,-5.3311,-5.3309,-5.3308,-5.3136,-5.3118,-5.333,-5.333,-5.3329,-5.3329,-5.3329,-5.3329,-5.3224,-5.3291,-5.3269,-5.3335,-5.3326,-5.3368,-5.3376,-5.3383,-5.3384,-5.3431,-5.3454,-5.3438,-5.3429,-5.3452,-5.3475,-5.3468,-5.348,-5.352,-5.3504,-5.3344,-5.332,-5.3298,-5.3281,-5.3523,-5.3523,-5.3674,-5.3675,-5.3676]},{"header":{"parameterUnit":"m.s-1","parameterCategory":1,"la1":30.2991,"la2":30.254,"lo1":-89.0895,"lo2":-89.0444,"dy":0.0017,"dx":0.0017,"nx":28,"ny":28,"refTime":"2025-04-15T09:00:00:Z","depth":0,"parameterNumber":3,"parameterNumberName":"V-component_of_WINDS"},"data":[0,0,0,0,0,0,0,0,0,0,0,0,0,0,0,0,0,0,0,0,0,0,0,0,0,0,0,0,0,0,0,0,0,0,0,0,0,0,0,0,0,0,0,0,0,0,0,0,0,0,0,0,0,0,0,0,0,0,-2.6577,-2.6577,0,-2.6589,-2.6589,-2.6589,-2.6547,-2.6546,-2.6545,-2.6544,-2.6554,-2.6556,-2.6557,0,0,0,0,0,0,0,0,0,0,0,0,0,-2.6518,-2.6519,-2.6577,-2.6577,-2.6577,-2.6589,-2.6589,-2.6589,-2.6547,-2.6546,-2.6544,-2.6543,-2.6554,-2.6556,-2.6557,0,0,0,0,0,0,0,0,0,0,0,0,0,-2.6538,-2.6519,-2.6577,-2.6558,-2.6557,-2.6589,-2.6589,-2.6589,-2.6548,-2.6546,-2.6544,-2.6542,-2.6553,-2.6556,-2.6558,-2.6608,0,0,-2.6564,-2.6565,0,0,0,0,0,0,0,0,-2.6537,-2.654,-2.6561,-2.6559,-2.6558,-2.6565,-2.6572,-2.6595,-2.6548,-2.6551,-2.6544,-2.6541,-2.6559,-2.6561,-2.6567,-2.6609,-2.6609,-2.6564,-2.6566,-2.6567,-2.6567,0,0,0,0,0,0,0,-2.6535,-2.6539,-2.6582,-2.6561,-2.6559,-2.6548,-2.6549,-2.6576,-2.6565,-2.6551,-2.6548,-2.655,-2.6558,-2.6565,-2.6567,-2.6609,-2.6564,-2.6566,-2.6568,-2.6568,-2.6692,-2.6694,0,0,0,0,0,0,-2.6537,-2.6538,-2.6581,-2.6582,-2.6542,-2.6551,-2.6552,-2.6564,-2.6565,-2.6563,-2.6551,-2.6548,-2.6562,-2.6565,-2.6567,-2.6626,-2.6567,-2.6569,-2.657,-2.669,-2.6693,-2.6695,0,0,0,0,0,0,-2.6536,-2.6541,-2.6581,-2.6559,-2.6564,-2.6554,-2.6568,-2.6565,-2.6572,-2.6565,-2.6563,-2.656,-2.6561,-2.6564,-2.6598,-2.6626,-2.657,-2.6572,-2.6688,-2.6691,-2.6694,-2.6745,0,0,0,0,0,0,-2.6534,-2.6541,-2.656,-2.656,-2.6565,-2.6612,-2.657,-2.6567,-2.6576,-2.6572,-2.6574,-2.6572,-2.656,-2.6595,-2.66,-2.6628,-2.6573,-2.6685,-2.6689,-2.6693,-2.6741,-2.6749,-2.6756,0,0,0,0,0,-2.6532,-2.6574,-2.6562,-2.6567,-2.6589,-2.6614,-2.6617,-2.6602,-2.6579,-2.6598,-2.6593,-2.6572,-2.6622,-2.6599,-2.6604,-2.6633,-2.6683,-2.6688,-2.6692,-2.6737,-2.6747,-2.6756,0,0,0,0,0,0,-2.6578,-2.6574,-2.656,-2.6603,-2.6609,-2.6607,-2.6631,-2.6614,-2.6626,-2.6621,-2.6602,-2.6603,-2.664,-2.664,-2.6614,-2.6682,-2.6649,-2.6654,-2.6681,-2.6691,-2.6698,-2.6698,-2.6575,0,0,0,0,0,-2.6593,-2.6614,-2.6609,-2.6648,-2.6651,-2.6641,-2.6651,-2.6639,-2.6644,-2.6647,-2.6644,-2.665,-2.6667,-2.6679,-2.6694,-2.674,-2.674,-2.6762,-2.677,-2.6777,-2.6782,-2.6806,-2.6816,-2.6709,-2.6709,-2.6709,0,0,-2.6625,-2.6625,-2.6639,-2.6657,-2.666,-2.6682,-2.6643,-2.6668,-2.6683,-2.665,-2.6682,-2.6681,-2.6686,-2.6726,-2.6744,-2.6727,-2.6811,-2.6782,-2.6788,-2.679,-2.6812,-2.6822,-2.6831,-2.6712,-2.6712,-2.6711,0,0,-2.6693,-2.6696,-2.6728,-2.6732,-2.6737,-2.673,-2.6738,-2.6738,-2.6736,-2.6767,-2.6743,-2.6761,-2.679,-2.6795,-2.6801,-2.687,-2.6851,-2.6876,-2.6917,-2.6941,-2.6949,-2.6957,-2.6981,-2.699,-2.6881,-2.6881,-2.6881,0,-2.6732,-2.6764,-2.6747,-2.6773,-2.6781,-2.6752,-2.6784,-2.6789,-2.6799,-2.6805,-2.6786,-2.6822,-2.6824,-2.6864,-2.6881,-2.6887,-2.6895,-2.6876,-2.6949,-2.6957,-2.6963,-2.6987,-2.6996,-2.6884,-2.6884,-2.6883,-2.6883,0,-2.6811,-2.6833,-2.6858,-2.6869,-2.688,-2.6909,-2.6896,-2.6909,-2.6896,-2.689,-2.6922,-2.6923,-2.6937,-2.6946,-2.6933,-2.6985,-2.6974,-2.6953,-2.6919,-2.6977,-2.6998,-2.7007,-2.6888,-2.6887,-2.6886,-2.6886,0,0,-2.691,-2.691,-2.6919,-2.6924,-2.6927,-2.6944,-2.6971,-2.6985,-2.6997,-2.7004,-2.7026,-2.7052,-2.7031,-2.7038,-2.7026,-2.7047,-2.7101,-2.7022,-2.7022,-2.7037,-2.7158,-2.7174,-2.7185,-2.7088,-2.709,-2.7091,-2.7157,0,-2.6977,-2.7024,-2.7009,-2.7057,-2.7077,-2.7049,-2.7073,-2.7077,-2.7072,-2.7088,-2.7082,-2.71,-2.7073,-2.7076,-2.7096,-2.7091,-2.7125,-2.7085,-2.7108,-2.7109,-2.7108,-2.7196,-2.7214,-2.7276,-2.7165,-2.7167,-2.7168,0,-2.7062,-2.7073,-2.7123,-2.7122,-2.713,-2.7152,-2.7163,-2.7179,-2.7183,-2.7177,-2.7185,-2.7168,-2.7194,-2.716,-2.7196,-2.7169,-2.7177,-2.7176,-2.7178,-2.718,-2.7143,-2.72,-2.7296,-2.7305,-2.7181,-2.718,-2.7179,0,-2.7129,-2.7156,-2.7189,-2.7194,-2.7194,-2.721,-2.721,-2.7212,-2.7222,-2.7231,-2.7237,-2.725,-2.7257,-2.7267,-2.7254,-2.723,-2.7291,-2.7256,-2.7287,-2.7288,-2.7302,-2.7301,-2.74,-2.7307,-2.7307,-2.7307,-2.7306,0,-2.7206,-2.7238,-2.722,-2.724,-2.7274,-2.7256,-2.729,-2.7288,-2.729,-2.7308,-2.7285,-2.7303,-2.7284,-2.73,-2.729,-2.7321,-2.7324,-2.732,-2.7317,-2.7323,-2.7323,-2.7328,-2.7324,-2.7309,-2.7308,-2.7308,-2.7308,0,-2.7288,-2.7277,-2.7311,-2.7308,-2.7308,-2.7333,-2.733,-2.7348,-2.7341,-2.7366,-2.737,-2.7359,-2.7377,-2.7364,-2.7382,-2.7375,-2.7416,-2.7406,-2.7415,-2.7412,-2.7444,-2.7442,-2.755,-2.7563,-2.7461,-2.7462,-2.7463,0,-2.7338,-2.7361,-2.7361,-2.7372,-2.7374,-2.7392,-2.7401,-2.7384,-2.7395,-2.7401,-2.7418,-2.7434,-2.7446,-2.7476,-2.7469,-2.7482,-2.7473,-2.751,-2.7475,-2.748,-2.7474,-2.7473,-2.7475,-2.7518,-2.7519,-2.752,-2.7521,0,-2.7428,-2.7421,-2.7436,-2.7448,-2.746,-2.7469,-2.7476,-2.7486,-2.7469,-2.7482,-2.75,-2.7509,-2.7527,-2.7543,-2.7554,-2.7554,-2.7535,-2.7532,-2.754,-2.7546,-2.755,-2.7548,-2.7434,-2.753,-2.7529,-2.7528,-2.7528,-2.7527,-2.7495,-2.7515,-2.7517,-2.7534,-2.7537,-2.7544,-2.7561,-2.7556,-2.7571,-2.7584,-2.7573,-2.7594,-2.7597,-2.7609,-2.7612,-2.7628,-2.7613,-2.7624,-2.7627,-2.7631,-2.7635,-2.7547,-2.763,-2.763,-2.7629,-2.7629,-2.7629,0,-2.7584,-2.7584,-2.76,-2.761,-2.7623,-2.7604,-2.761,-2.7622,-2.7641,-2.7645,-2.7657,-2.7678,-2.7693,-2.7687,-2.7701,-2.7715,-2.7706,-2.7719,-2.7718,-2.7718,-2.7648,-2.764,-2.7725,-2.7725,-2.7725,-2.7725,-2.7725,-2.7725,-2.7632,-2.7664,-2.7657,-2.769,-2.7689,-2.771,-2.7716,-2.7722,-2.7725,-2.7749,-2.7761,-2.7757,-2.7757,-2.777,-2.7783,-2.7781,-2.7787,-2.7803,-2.7798,-2.7732,-2.7723,-2.7714,-2.7706,-2.7804,-2.7804,-2.7866,-2.7867,-2.7867]}]]